Regional Weather Roundup
Issued by NWS Wakefield, VA

Home | Current Version | Previous Version | Graphics & Text | Print | Product List | Glossary On
Versions: 1 2 3 4 5 6 7 8 9 10 11 12 13 14 15 16 17 18 19 20 21 22 23 24 25 26 27 28 29 30 31 32 33 34 35 36 37 38 39 40 41 42 43 44 45 46 47 48 49 50
000
ASUS41 KAKQ 251110
RWRAKQ

REGIONAL WEATHER ROUNDUP
NATIONAL WEATHER SERVICE WAKEFIELD VA
700 AM EDT FRI JUL 25 2014

Note: "fair" indicates few or no clouds below 12,000 feet with no
significant weather and/or obstructions to visibility. * = Denotes
station may not report precipitation (e.g., rain,snow,etc.),
thunder or fog.

VAZ042-051-052>054-056-251200-
NORTHERN VIRGINIA

CITY           SKY/WX    TMP DP  RH WIND       PRES   REMARKS
WASH NATIONAL  PTCLDY    66  54  65 N8        30.05R
DULLES         PTCLDY    61  54  77 N5        30.06R
FORT BELVOIR   CLEAR     58  57  95 NW1       30.06R
QUANTICO       CLEAR     63  58  83 NW9       30.06R
FREDERICKSBRG* CLEAR     61  61 100 NW5       30.04R
STAFFORD*      CLEAR     57  57 100 CALM      30.09R
WARRENTON      CLEAR     60  60 100 CALM      30.05R
CULPEPER*      CLEAR    N/A N/A N/A CALM      30.07R FOG
MANASSAS*      CLEAR     61  59  94 CALM      30.06R
LEESBURG*      CLEAR     61  57  88 N3        30.07R
WINCHESTER     CLEAR     55  52  88 CALM      30.07S
$$

VAZ048-049-060>072-079>083-251200-
CENTRAL AND SOUTH CENTRAL VIRGINIA...AND NORTH CENTRAL NORTH CAROLINA

CITY           SKY/WX    TMP DP  RH WIND       PRES   REMARKS
RICHMOND       PTCLDY    67  62  84 CALM      30.03R
CHESTERFIELD*  SUNNY     63  54  72 W3        30.05R
HANOVER        CLEAR     63  62  97 CALM      30.06R
TAPPAHANNOCK*  CLEAR     64  61  90 CALM      30.04R
CHARLOTTSVILLE PTCLDY    60  59  96 CALM      30.06R FOG
ORANGE*        CLEAR     59  59 100 CALM      30.07R
LOUISA*        CLEAR     61  61 100 CALM      30.05R
FARMVILLE*     FOG       61  61 100 CALM      30.04R VSB<1/4
SOUTH HILL*    CLOUDY    68  68 100 N3        30.10R
ROANOKE RAPIDS CLOUDY    63  61  94 N6        30.04R FOG
RALEIGH        FOG       67  65  93 CALM      30.04R VSB 1/2
$$

VAZ088>098-251200-
SOUTHEAST VIRGINIA

CITY           SKY/WX    TMP DP  RH WIND       PRES   REMARKS
NORFOLK        PTCLDY    71  68  90 CALM      29.99R
VIRGINIA BEACH PTCLDY    70  69  97 W5        29.98R
NORFOLK NAVAL  PTCLDY    72  68  87 NW7       30.01R
WEST POINT*    CLEAR     68  64  89 N3        30.04R
NEWPORT NEWS   CLEAR     71  65  81 NW5       30.01R
LANGLEY AFB    CLEAR     69  69 100 NW5       30.00R
FORT EUSTIS    CLEAR     70  70 100 N8        30.00R
WILLIAMSBURG*  CLEAR     68  66  94 N6        30.03R
FRANKLIN*      CLOUDY    66 N/A N/A NW3       30.02R
WAKEFIELD      CLOUDY    68  65  90 VRB3      30.03R FOG
$$

VAZ020-022-025-037-045-251200-
WESTERN AND SOUTHWEST VIRGINIA

CITY           SKY/WX    TMP DP  RH WIND       PRES   REMARKS
STAUNTON*      MOCLDY    62  58  86 NW3       30.09S
HOT SPRINGS VA CLOUDY    56  49  79 E5        30.16R
LYNCHBURG      CLOUDY    67  66  97 CALM      30.08R
DANVILLE       CLEAR     66  64  93 CALM      30.06R
MARTINSVILLE   PTCLDY    64  63  98 CALM      30.10R FOG
ROANOKE        PTCLDY    63  61  93 W3        30.10R
BLACKSBURG     CLOUDY    64  64 100 SE3         N/A
DUBLIN*        CLOUDY    63  61  94 SW3       30.12R FOG
MARION*        FOG      N/A N/A N/A CALM      30.15R VSB<1/4
HILLSVILLE*    CLEAR     58  57  97 CALM      30.13R FOG
RICHLANDS*     CLOUDY    61  59  94 E5        30.12S FOG
WISE*          FOG       57  57 100 CALM      30.12S VSB 1
ABINGDON*      CLEAR     60  59  98 CALM      30.10S
$$

MDZ021>025-VAZ099-100-251200-
SOUTHERN MARYLAND AND THE DELMARVA PENINSULA

CITY           SKY/WX    TMP DP  RH WIND       PRES   REMARKS
PATUXENT RIVER CLEAR     70  57  63 N8        30.02R
BAY BRIDGE APT   N/A     68  54  60 N8        30.03R
LEONARDTOWN    CLEAR     61  59  94 CALM      30.04R
DOVER          SUNNY     63  56  77 NW9       29.99R
GEORGETOWN     SUNNY     63  56  78 VRB5      30.01R
EASTON         SUNNY     64  59  82 CALM      30.06R
CAMBRIDGE      SUNNY     66  54  63 N5        30.02R
SALISBURY      NOT AVBL
OCEAN CITY     SUNNY     64  60  87 NW6       29.99R
WALLOPS ISLAND MOSUNNY   66  60  81 N7        30.00R
ACCOMACK*        N/A     66  59  77 N6        29.99R
$$

NCZ012>017-030>032-251200-
EASTERN NORTH CAROLINA

CITY           SKY/WX    TMP DP  RH WIND       PRES   REMARKS
ELIZABETH CITY CLEAR     70  68  93 NW6       29.99R
AHOSKIE*       MOCLDY    67  66  96 CALM      30.03R
EDENTON*       MOCLDY    69  68  97 N5        30.00R FOG
CURRITUCK*     CLEAR     70  68  92 NW3       30.00R
KILL DEVIL HLS CLEAR     71  68  90 N8        29.97R
MANTEO         NOT AVBL
CAPE HATTERAS  MOCLDY    73  70  90 VRB3      29.99R
GOLDSBORO      CLOUDY    67  67  99 E2        30.00R
WASHINGTON     CLOUDY    68  67  96 N5        30.01R
GREENVILLE     CLOUDY    68  68 100 N6        30.04R FOG
NEW BERN       CLOUDY    70  67  90 N9        30.02R FOG
WILMINGTON     FOG       73  72  96 N6        29.98R VSB 1/2
$$

VAZ048-251200-
ELSEWHERE

CITY           SKY/WX    TMP DP  RH WIND       PRES   REMARKS
HARRISBURG PA  MOSUNNY   62  51  67 NW9       30.05R
BALTIMORE      CLEAR     60  53  77 NW3       30.04R
ANNAPOLIS      CLEAR     66  55  67 NW9       30.03R
ANDREWS AFB    CLEAR     62  55  77 N5        30.05R
WILMINGTON DE  SUNNY     61  53  75 NW8       30.02R
PHILADELPHIA   MOSUNNY   64  51  62 N10       30.01R
WILDWOOD NJ*   SUNNY     64  55  72 N6        30.00R
ATLANTIC CITY  SUNNY     62  56  80 NW6       29.98R
HENDERSON NC   CLOUDY    67  66  94 CALM      30.05R FOG
GREENSBORO     CLOUDY    68  66  93 NE6       30.05R
ROCKY MOUNT    FOG       68  67  96 N7        30.03R VSB 1
FAYETTEVILLE   MOCLDY    69  67  93 N9        30.00R
CHARLOTTE      CLOUDY    68  64  87 NE6       30.05R
$$

VAZ100-251200-
MARINE

STATION/POSITION TIME  TEMP    WIND        PRES    WAVE   SWELL
                       AIR SEA DIR/SP/G            HT/PER HT/PER
                 (UTC) (F)     (DEG/KT/KT) (MB)    (FT/S) (FT/S)
44066 TX TWR #4  1100   72 74   30/ 12/ 14 1013.3R   2/ 8   2/ 8
CAPE MAY NJ      1100   69 76  350/  6/ 11 1015.1R
LEWES DE         1100   70 72  350/ 12/ 14 1015.4R
15NM E FENWICK I 1100   72 75              1014.8R   3/ 5
OCEAN-CITY-INLET 1100   66 70  330/  6/  8 1015.0R
WACHAPREAGUE VA  1100   67 80  320/  2/  5 1015.3R
THOMAS POINT MD  1100   67 78  360/ 14/ 15 1017.3R
GOOSES REEF MD   1100   72      30/ 12/ 14 1016.8R
COVE POINT MD    1100   72      20/ 11/ 13 1016.3R
SOLOMONS ISLAND  1100      80                N/A
BISHOPS HEAD MD  1100   67 76  350/  4/  7 1015.8R
PINEY POINT MD   1100           40/  5/  6   N/A
POTOMAC MD       1100   73      20/ 12/ 14 1015.6R
CAMBRIDGE MD     1100   68 79  350/  8/ 10 1016.1R
LEWISETTA VA     1100   72 79   20/  8/ 12 1016.0S
RAPPAHANNOCK LGT 1100           10/ 16/ 17 1016.2R
STINGRAY PT      1100   75      20/ 14/ 16 1016.4R
YORK RVR RNG VA  1100   74     360/ 13/ 15 1015.0R
YORKTOWN VA      1100   71 80  330/ 11/ 12 1015.6R
JAMESTOWN VA     1100   68     360/  8/ 10   N/A
DOMINION TERM VA 1100   71     340/  5/  7 1015.8R
KIPTOPEKE VA     1100      80   30/  5/  7   N/A
CHES BAY BRIDGE  1100   75 79   10/ 12/ 15 1014.6R
CAPE HENRY VA    1100   74     360/ 12/ 13 1014.1R
WILLOUBY STN VA  1100          330/  8/  9 1014.9R
S CRANEY ISL VA  1100          290/  3/  6 1015.7R
CAPE HENRY BUOY  1100      77                N/A     2/ 7
1ST LANDING BUOY 1100   75      20/ 14/ 16 1014.8R
CAPE CHARLES BUO 1100      76                N/A     2/ 7
OFFSHORE WE BUOY 1100      78                N/A     2/ 7
64NM E OF VA BCH 1100   76 78  340/ 12/ 14 1014.0R   3/ 7   2/ 7
DUCK PIER NC     1100   74 73   10/ 16/ 18 1014.0R
44056 DUCK FRF   1100                        N/A     3/ 4
OREGON INLET NC  1100   72 77  340/  6/  9 1014.8R
HATTERAS NC      1100   74 80  340/ 14/ 15 1015.5R
DIAMOND SHLS NC  1100          VRB 14/ 16  1014.8R   3/ 6   2/ 6
CAPE LOOKOUT NC  1000   72     340/  9/ 10 1015.0R
$$



USA.gov is the U.S. government's official web portal to all federal, state and local government web resources and services.